This demonstration page uses our WeatherBlox Daily Observations layout. Learn more.

40.92945, -100.16068

Hourly Observations for October 20, 2020

Temp ( °F °C ) Dew Point ( °F °C ) Humidity (%) Winds ( mph kmh ) Pressure ( in mb ) Visibility ( mi km ) Precip ( " mm )
12:15 am 00:15 Clear 40 4.2 32 0 74 74 SSE 9 15 30.13 1020 10 16.0934 0 0
12:35 am 00:35 Clear 38 3.5 32 0 78 78 SSE 7 11 30.13 1020 10 16.0934 0 0
12:55 am 00:55 Clear 38 3.4 32 0 79 79 SSE 8 13 30.12 1020 10 16.0934 0 0
1:15 am 01:15 Clear 37 2.9 32 0 81 81 SSE 7 11 30.13 1020 10 16.0934 0 0
1:35 am 01:35 Clear 37 2.7 32 0 83 83 SSE 8 13 30.13 1020 10 16.0934 0 0
1:55 am 01:55 Clear 37 3 32 0.1 81 81 SSE 6 9 30.12 1020 10 16.0934 0 0
2:15 am 02:15 Mostly Cloudy 38 3.5 33 0.5 81 81 S 6 9 30.1 1019 10 16.0934 0 0
2:35 am 02:35 Partly Cloudy 38 3.5 33 0.5 81 81 SSE 7 11 30.1 1019 10 16.0934 0 0
2:55 am 02:55 Mostly Cloudy 38 3.5 34 0.9 83 83 S 6 9 30.1 1019 10 16.0934 0 0
3:15 am 03:15 Cloudy 40 4.5 34 1.3 80 80 SSE 6 9 30.09 1019 10 16.0934 0 0
3:35 am 03:35 Cloudy 40 4.6 35 1.5 81 81 SSE 7 11 30.08 1019 10 16.0934 0 0
3:55 am 03:55 Cloudy 41 5 35 1.8 80 80 SSE 9 15 30.07 1018 10 16.0934 0 0
4:15 am 04:15 Cloudy 42 5.4 35 1.6 77 77 S 12 19 30.05 1018 10 16.0934 0 0
4:35 am 04:35 Partly Cloudy 40 4.5 34 1.1 79 79 S 12 19 30.05 1018 10 16.0934 0 0
4:55 am 04:55 Partly Cloudy 39 4.1 34 0.9 80 80 S 8 13 30.08 1019 10 16.0934 0 0
5:15 am 05:15 Mostly Cloudy 38 3.5 34 0.9 83 83 S 10 17 30.06 1018 10 16.0934 0 0
5:35 am 05:35 Cloudy 39 4.1 35 1.5 83 83 S 12 19 30.05 1017 10 16.0934 0 0
5:55 am 05:55 Cloudy 40 4.6 34 1.3 79 79 S 12 19 30.03 1017 10 16.0934 0 0
6:15 am 06:15 Cloudy 40 4.5 34 1.3 80 80 S 7 11 30.04 1017 10 16.0934 0 0
6:35 am 06:35 Mostly Cloudy 40 4.2 34 1 80 80 S 9 15 30.05 1017 10 16.0934 0 0
6:55 am 06:55 Clear 38 3.2 33 0.6 83 83 S 8 13 30.05 1017 10 16.0934 0 0
7:15 am 07:15 Clear 37 3 33 0.5 84 84 S 9 15 30.04 1017 10 16.0934 0 0
7:35 am 07:35 Clear 37 2.8 33 0.5 85 85 SSE 10 17 30.02 1017 10 16.0934 0 0
7:55 am 07:55 Clear 36 2.4 32 0.2 86 86 SSE 9 15 30.03 1017 10 16.0934 0 0
8:15 am 08:15 Sunny 36 2.3 33 0.3 87 87 SSE 8 13 30.03 1017 10 16.0934 0 0
8:35 am 08:35 Sunny 37 2.7 33 0.6 86 86 S 9 15 30.04 1017 10 16.0934 0 0
8:55 am 08:55 Sunny 38 3.2 34 0.9 85 85 SSE 12 19 30.03 1017 10 16.0934 0 0
9:15 am 09:15 Sunny 39 4 34 1.3 83 83 S 15 24 30 1016 10 16.0934 0 0
9:35 am 09:35 Sunny 42 5.3 35 1.9 79 79 S 14 22 30.02 1016 10 16.0934 0 0
9:55 am 09:55 Partly Cloudy 42 5.5 36 2.1 79 79 S 16 26 30 1016 10 16.0934 0 0
10:15 am 10:15 Sunny 44 6.5 36 2.3 75 75 S 20 31 29.97 1015 10 16.0934 0 0
10:35 am 10:35 Mostly Cloudy 44 6.8 37 2.5 74 74 S 16 26 29.97 1015 10 16.0934 0 0
10:55 am 10:55 Cloudy 45 7.1 37 2.5 73 73 SSW 15 24 29.98 1015 10 16.0934 0 0
11:15 am 11:15 Cloudy 46 7.6 37 2.7 71 71 SW 13 20 29.99 1016 10 16.0934 0 0
11:35 am 11:35 Cloudy 46 7.8 37 3 72 72 SW 10 17 29.98 1015 10 16.0934 0 0
11:55 am 11:55 Cloudy 47 8.5 38 3.1 69 69 SSW 12 19 29.96 1014 10 16.0934 0 0
12:15 pm 12:15 Cloudy 48 9.1 38 3.2 67 67 WSW 10 17 29.98 1015 10 16.0934 0 0
12:35 pm 12:35 Cloudy 49 9.7 38 3.5 66 66 SSW 14 22 29.94 1014 10 16.0934 0 0
12:55 pm 12:55 Mostly Cloudy 51 10.5 39 3.7 63 63 SW 10 17 29.94 1014 10 16.0934 0 0
1:15 pm 13:15 Partly Cloudy 52 11.3 39 3.8 60 60 SW 13 20 29.91 1013 10 16.0934 0 0
1:35 pm 13:35 Sunny 54 12.3 39 3.9 57 57 SW 9 15 29.9 1013 10 16.0934 0 0
1:55 pm 13:55 Sunny 56 13.1 39 3.7 53 53 SW 10 17 29.88 1012 10 16.0934 0 0
2:15 pm 14:15 Sunny 58 14.2 38 3.6 49 49 W 9 15 29.87 1012 10 16.0934 0 0
2:35 pm 14:35 Sunny 58 14.6 38 3.5 48 48 WSW 5 7 29.87 1011 10 16.0934 0 0
2:55 pm 14:55 Sunny 59 14.9 38 3.1 45 45 WNW 7 11 29.87 1011 10 16.0934 0 0
3:15 pm 15:15 Sunny 59 15.2 37 3 44 44 NW 9 15 29.86 1011 10 16.0934 0 0
3:35 pm 15:35 Sunny 60 15.5 38 3.2 44 44 WNW 9 15 29.86 1011 10 16.0934 0 0
3:55 pm 15:55 Sunny 62 16.6 38 3.1 41 41 NW 10 17 29.85 1011 10 16.0934 0 0
4:15 pm 16:15 Sunny 62 16.8 38 3.1 40 40 NNW 9 15 29.86 1011 10 16.0934 0 0
4:35 pm 16:35 Sunny 64 17.6 38 3.1 38 38 N 14 22 29.85 1011 10 16.0934 0 0
4:55 pm 16:55 Sunny 63 17 38 3.6 41 41 N 14 22 29.88 1012 10 16.0934 0 0
5:15 pm 17:15 Sunny 63 17 39 3.8 42 42 N 16 26 29.89 1012 10 16.0934 0 0
5:35 pm 17:35 Sunny 62 16.4 39 4 44 44 N 15 24 29.89 1012 10 16.0934 0 0
5:55 pm 17:55 Sunny 60 15.4 39 3.9 46 46 N 9 15 29.91 1013 10 16.0934 0 0
6:15 pm 18:15 Sunny 58 14.5 39 3.7 49 49 N 8 13 29.92 1013 10 16.0934 0 0
6:35 pm 18:35 Sunny 56 13.4 39 3.7 52 52 NE 5 7 29.94 1014 10 16.0934 0 0
6:55 pm 18:55 Clear 55 12.7 38 3.5 54 54 NNE 6 9 29.97 1015 10 16.0934 0 0
7:15 pm 19:15 Clear 52 11.2 38 3.1 58 58 N 8 13 29.99 1016 10 16.0934 0 0
7:35 pm 19:35 Clear 51 10.8 38 3.2 60 60 NNE 8 13 30.01 1016 10 16.0934 0 0
7:55 pm 19:55 Clear 51 10.6 38 3.4 61 61 NNE 6 9 30.02 1016 10 16.0934 0 0
8:15 pm 20:15 Clear 50 10 38 3.4 64 64 NE 7 11 30.03 1017 10 16.0934 0 0
8:35 pm 20:35 Clear 49 9.4 38 3.2 66 66 NNE 6 9 30.05 1017 10 16.0934 0 0
8:55 pm 20:55 Clear 45 7.1 37 2.5 73 73 N 5 7 30.09 1019 10 16.0934 0 0
9:15 pm 21:15 Clear 45 7.4 37 2.7 72 72 N 3 6 30.09 1019 10 16.0934 0 0
9:35 pm 21:35 Clear 44 6.7 37 2.5 75 75 N 7 11 30.11 1020 10 16.0934 0 0
9:55 pm 21:55 Clear 44 6.6 37 2.7 76 76 NNW 8 13 30.13 1020 10 16.0934 0 0
10:15 pm 22:15 Clear 44 6.6 37 3 78 78 N 7 11 30.13 1020 10 16.0934 0 0
10:35 pm 22:35 Clear 43 6 37 2.7 80 80 N 6 9 30.15 1021 10 16.0934 0 0
10:55 pm 22:55 Clear 43 6.2 37 2.7 79 79 N 6 9 30.16 1021 10 16.0934 0 0
11:15 pm 23:15 Clear 42 5.6 36 2.3 80 80 N 6 9 30.17 1022 10 16.0934 0 0
11:35 pm 23:35 Clear 43 6 37 2.7 80 80 Calm 30.17 1022 10 16.0934 0 0
11:55 pm 23:55 Clear 42 5.8 37 2.5 80 80 Calm 30.17 1022 10 16.0934 0 0

Powered by AerisWeather